Sacramento, CA

8:32 AM PST on February 13, 2016 (GMT -0800)
Sacramento Executive

Weather History for KSAC - November, 2010

Change the Weather History Date:

Saturday, November 13, 2010

  Actual Average Record
Temperature  
Mean Temperature 54 °F -  
Max Temperature 69 °F 65 °F 80 °F (2013)
Min Temperature 38 °F 43 °F 30 °F (1985)
Degree Days  
Heating Degree Days 11    
Month to date heating degree days 100  
Cooling Degree Days 0    
Month to date cooling degree days 2  
Year to date cooling degree days 1079  
Growing Degree Days 2 (Base 50)    
Moisture  
Dew Point 39 °F    
Average Humidity 63    
Maximum Humidity 92    
Minimum Humidity 34    
Precipitation  
Precipitation 0.00 in 0.06 in 1.73 in (1981)
Month to date precipitation 0.47 0.76  
Year to date precipitation 15.37 13.95  
Since 1 July precipitation 1.91  
Snow  
Snow 0.00 in 0.00 in 0.00 in (2002)
Month to date snowfall 0.0 0.0  
Since 1 July snowfall 0.0 0.0  
Since 1 September snowfall 0.0 0.0  
Snow Depth 0.00 in    
Sea Level Pressure  
Sea Level Pressure 30.26 in    
Wind  
Wind Speed 4 mph (North)    
Max Wind Speed 20 mph    
Max Gust Speed 24 mph    
Visibility 10 miles    
Events      
T = Trace of Precipitation, MM = Missing Value Source: NWS Daily Summary

Daily Weather History Graph

Daily Weather History Graph

Search for Another Location

Airport or City:

Trip Planner

Search our weather history database for the weather conditions in past years. The results will help you decide how hot, cold, wet, or windy it might be!

Date:

Astronomy

Nov. 13, 2010 Rise Set
Actual Time 6:45 AM PST 4:54 PM PST
Civil Twilight 6:17 AM PST 5:22 PM PST
Nautical Twilight 5:45 AM PST 5:54 PM PST
Astronomical Twilight 5:14 AM PST 6:25 PM PST
Moon 12:45 PM PST No Moon Set
Length of Visible Light 11h 05m
Length of Day
10h 08m
First Quarter, 51% of the Moon is Illuminated
Nov 13
First Quarter
Nov 21
Full
Nov 28
Last Quarter
Dec 5
New
Dec 13
First Quarter

Hourly Weather History & Observations

Time (PST) Temp. Dew Point Humidity Pressure Visibility Wind Dir Wind Speed Gust Speed Precip Events Conditions
12:53 AM 50.0 °F 39.9 °F 68% 30.33 in 10.0 mi NE 3.5 mph - N/A   Clear
1:53 AM 45.0 °F 39.0 °F 80% 30.35 in 10.0 mi Calm Calm - N/A   Clear
2:53 AM 42.1 °F 39.0 °F 89% 30.33 in 10.0 mi Calm Calm - N/A   Clear
3:53 AM 39.9 °F 37.0 °F 89% 30.33 in 10.0 mi Calm Calm - N/A   Clear
4:53 AM 39.9 °F 37.0 °F 89% 30.33 in 10.0 mi Calm Calm - N/A   Clear
5:53 AM 39.9 °F 37.0 °F 89% 30.33 in 10.0 mi Calm Calm - N/A   Clear
6:53 AM 39.9 °F 37.0 °F 89% 30.34 in 10.0 mi Calm Calm - N/A   Clear
7:53 AM 44.1 °F 41.0 °F 89% 30.35 in 10.0 mi Calm Calm - N/A   Clear
8:53 AM 53.1 °F 42.1 °F 66% 30.34 in 10.0 mi Calm Calm - N/A   Clear
9:53 AM 59.0 °F 36.0 °F 42% 30.32 in 10.0 mi North 6.9 mph - N/A   Clear
10:53 AM 60.1 °F 36.0 °F 41% 30.31 in 10.0 mi NNW 8.1 mph - N/A   Clear
11:53 AM 63.0 °F 37.9 °F 40% 30.29 in 10.0 mi NNE 6.9 mph - N/A   Clear
12:53 PM 64.9 °F 37.0 °F 36% 30.27 in 10.0 mi North 11.5 mph - N/A   Clear
1:53 PM 66.9 °F 37.9 °F 34% 30.24 in 10.0 mi NNE 8.1 mph - N/A   Clear
2:53 PM 66.0 °F 39.0 °F 37% 30.21 in 10.0 mi North 3.5 mph - N/A   Clear
3:53 PM 64.0 °F 39.9 °F 41% 30.20 in 10.0 mi Calm Calm - N/A   Clear
4:53 PM 57.0 °F 44.1 °F 62% 30.19 in 10.0 mi West 4.6 mph - N/A   Clear
5:53 PM 57.0 °F 39.9 °F 53% 30.19 in 10.0 mi North 4.6 mph - N/A   Clear
6:53 PM 57.0 °F 39.0 °F 51% 30.17 in 10.0 mi NNW 5.8 mph - N/A   Clear
7:53 PM 59.0 °F 37.9 °F 46% 30.17 in 10.0 mi NNW 8.1 mph - N/A   Clear
8:53 PM 61.0 °F 37.9 °F 42% 30.16 in 10.0 mi NNW 17.3 mph - N/A   Clear
9:53 PM 61.0 °F 39.0 °F 44% 30.16 in 10.0 mi NNW 16.1 mph 21.9 mph N/A   Clear
10:53 PM 60.8 °F 39.2 °F 45% 30.16 in 10.0 mi North 13.8 mph 20.7 mph N/A   Clear
11:53 PM 59.0 °F 41.0 °F 51% 30.16 in 10.0 mi North 11.5 mph - N/A   Clear